Preview of NWS' New Version of Forecast
This preview is not operational and should not be used for support decisions.

Regional Weather Roundup (RWR)

Issued by Gray - Portland, ME (GYX)

                            
000
ASUS41 KGYX 201910
RWRGYX
WEATHER ROUNDUP FOR MAINE AND NEW HAMPSHIRE
NATIONAL WEATHER SERVICE GRAY ME
200 PM EST SUN JAN 20 2019

MEZ002-005-006-010-012-015-018-020-021-024-026-027-029-202000-
MAINE
  
CITY           SKY/WX    TMP DP  RH WIND       PRES   REMARKS
PORTLAND       LGTSLEET  10   6  84 N16G23    29.33F VSB 3/4 WCI  -7  
SANFORD        LGT SNOW  11   7  84 N15       29.30F FOG     WCI  -5  
BAR HARBOR     SNOW      15  12  88 N13G18    29.38F VSB 1/2 WCI   1  
WISCASSET      LGT SNOW   8   4  83 NE9       29.34F FOG              
ROCKLAND       LGT SNOW  19  17  92 NE13G24   29.34F FOG     WCI   6  
FRYEBURG       MIX PCPN  12   8  84 N12       29.35F FOG     WCI  -2  
LEWISTONAUBURN LGT SNOW   7   1  78 N16G25    29.37F VSB 1   WCI -11  
AUGUSTA        SNOW       4   0  83 N20G31    29.40F VSB 1/2 WCI -17  
WATERVILLE     LGT SNOW N/A N/A N/A MISG        N/A  VSB 3/4          
BANGOR         LGTSLEET   6   2  83 N16       29.46F VSB 3/4 WCI -12  
GREENVILLE       N/A     -3 -10  72 MISG      29.37F                  
MILLINOCKET    BLWGSNOW   2  -4  76 NE14G24   29.55F VSB 1/2 WCI -16  
HOULTON        SNOW       7   4  87 N9        29.56F VSB<1/4          
PRESQUE ISLE   HVY SNOW   4   1  88 N14       29.66F VSB 1/4 WCI -14  
FRENCHVILLE    HVY SNOW   2  -5  72 NE15G22   29.70F VSB 1/4 WCI -17  
CARIBOU        HVY SNOW   3  -2  79 N15       29.65F VSB<1/4 WCI -16  
$$

NHZ002-005-008-009-011-012-014-202000-
NEW HAMPSHIRE
  
CITY           SKY/WX    TMP DP  RH WIND       PRES   REMARKS
PORTSMOUTH     LGTSLEET  14  10  83 N15G21    29.25F VSB 3/4 WCI  -1  
ROCHESTER      LGT SNOW  13  11  92 N13       29.27F VSB 3/4 WCI  -2  
NASHUA         LGT SNOW  18  16  93 NW14      29.33R FOG     WCI   4  
MANCHESTER     LGTSLEET  17  13  84 NW12      29.30S VSB 1   WCI   4  
CONCORD        MIX PCPN  16  12  84 NW10      29.32R VSB 3/4 WCI   4  
LACONIA        LGT SNOW  15  11  83 CALM      29.33R VSB 3/4          
PLYMOUTH       LGT SNOW  19  14  82 W15G24    29.34F WCI   5          
BERLIN         SNOW      10   6  84 N13       29.35F VSB 1/2 WCI  -5  
WHITEFIELD     SNOW      16  13  88 N14       29.35R VSB 1/4 WCI   2  
JAFFREY        LGT SNOW  15  14  95 S3        29.29R VSB 3/4          
KEENE          LGT SNOW  19  15  84 NE10      29.34F FOG     WCI   7  
LEBANON        SNOW      17  11  77 N5        29.39F VSB 1/2          
MT WASHINGTON  LGTSLEET  25  25 100 S43G54      N/A  VSB 1/16WCI   5  
$$

VTZ005-007-008-202000-
VERMONT
  
CITY           SKY/WX    TMP DP  RH WIND       PRES   REMARKS
ST JOHNSBURY     N/A     11   9  92 MISG      29.40R                  
MONTPELIER     SNOW       9   7  92 NW8       29.42F VSB 1/4          
BURLINGTON     LGT SNOW   2  -4  76 N18G25    29.57S VSB 1   WCI -19  
$$

MAZ007-012-024-CTZ003-RIZ002-NYZ038-NYZ072-202000-
SOUTHERN NEW ENGLAND AND NY
  
CITY           SKY/WX    TMP DP  RH WIND       PRES   REMARKS
BOSTON         FRZ RAIN  27  24  89 NW9       29.26F FOG              
WORCESTER      SNOW      19  16  88 NW17G25   29.25R VSB 1/2 WCI   4  
NANTUCKET      HVY RAIN  46  46 100 S20       29.28S VSB 1/2          
PROVIDENCE     RAIN      33  33 100 N10       29.18F FOG              
HARTFORD       FRZ RAIN  24  22  91 N13       29.31S FOG     WCI  12  
ALBANY         LGT SNOW  18  11  74 N8        29.47S                  
NEW YORK CITY  PTSUNNY   38  32  79 NW21G28   29.30R                  
$$

ANZ081-ANZ082-ANZ150-NHZ014-MEZ023>029-202000-
COASTAL MARINE OBSERVATIONS
  
STATION/POSITION TIME  TEMP    WIND        PRES    WAVE
                       AIR SEA DIR/SP/G            HT/PER
                 (UTC) (F)     (DEG/KT/KT) (MB)    (FT/S)
MOUNT DESERT ROC 1900   46     160/ 16/ 19  992.1F
MATINICUS ROCK   1900   32      20/ 20/ 22  991.4F
ISLE OF SHOALS   1900   21      10/ 26/ 28  990.3F
JEFFREYS LEDGE   1838      42                N/A    12/ 9
CASHES LEDGE BUO 1850   43 41               991.5S  12/ 9
$$

.............KEY..............
   WCI - WIND CHILL
   TC  - TEMPERATURE IN CELSIUS
   VSB - VISIBILITY IN MILES
   HX  - HEAT INDEX
   FAIR- INDICATES FEW OR NO CLOUDS BELOW 12,000 FT, WITH NO 
         SIGNIFICANT WEATHER AND/OR OBSTRUCTIONS TO VISIBILITY.